Location: Unspecified
(50.7693°N, 0.0000°E)
Time: 04:51:03
(UTC+00:00)

Vanguard 2 Rocket - Visible Passes

Search period start: 26 June 2019 00:00
Search period end: 06 July 2019 00:00
Orbit: 555 x 3326 km, 32.9° (Epoch: 25 June)

Date Brightness Start Highest point End Pass type
(mag) Time Alt. Az. Time Alt. Az. Time Alt. Az.
26 Jun 9.2 00:09:50 10° WSW 00:18:56 30° S 00:32:25 10° SE visible
26 Jun 9.9 02:24:07 10° WSW 02:33:19 20° SSW 02:44:53 10° S visible
26 Jun 8.8 21:00:18 10° SSW 21:05:57 23° SSE 21:14:12 10° ESE visible
26 Jun 9.0 23:10:52 10° WSW 23:18:49 30° S 23:30:58 10° SE visible
27 Jun 9.6 01:23:52 10° WSW 01:32:53 23° SSW 01:45:02 10° SSE visible
27 Jun 8.9 22:12:14 10° SW 22:19:01 28° S 22:29:21 10° ESE visible
28 Jun 9.3 00:24:17 10° WSW 00:32:36 25° SSW 00:44:28 10° SSE visible
28 Jun 10.1 02:40:45 10° WSW 02:46:46 14° SSW 02:53:43 10° S visible
28 Jun 8.7 21:13:57 10° SW 21:19:32 24° SSE 21:27:44 10° ESE visible
28 Jun 9.1 23:25:09 10° WSW 23:32:33 26° S 23:43:28 10° SE visible
29 Jun 9.8 01:39:24 10° WSW 01:46:29 17° SSW 01:55:21 10° S visible
29 Jun 8.9 22:26:22 10° SW 22:32:45 25° S 22:42:15 10° SE visible
30 Jun 9.5 00:39:16 10° WSW 00:46:19 19° SSW 00:55:42 10° SSE visible
30 Jun 8.7 21:27:54 10° SW 21:33:13 23° S 21:40:57 10° SE visible
30 Jun 9.3 23:39:49 10° SW 23:46:19 21° SSW 23:48:05 20° S visible
01 Jul10.102:08:52S02:08:52S01:53:41WSWvisible
01 Jul 9.0 22:40:49 10° SW 22:46:33 21° S 22:50:02 18° SSE visible
02 Jul 9.8 00:55:40 10° SW 00:55:41 10° SW 00:55:41 10° SW visible
02 Jul 8.8 21:42:10 10° SW 21:47:01 20° S 21:52:31 12° SE visible
02 Jul 9.5 23:55:20 10° SW 23:58:13 14° SSW 23:58:13 14° SSW visible
03 Jul 9.2 22:55:52 10° SW 23:00:24 16° SSW 23:00:59 16° S visible
04 Jul 9.0 21:56:55 10° SW 22:00:53 16° S 22:03:56 13° SSE visible
05 Jul 8.8 20:58:20 10° SSW 21:01:35 15° S 21:05:38 10° SSE visible
